Weather History for Fort Morgan, CO

Change the Weather History Date:

Thursday, November 1, 2012

  Actual Average (KAKO) Record (KAKO)
Temperature  
Mean Temperature 48 °F 44 °F  
Max Temperature 61 °F 57 °F 87 °F (1938)
Min Temperature 34 °F 31 °F -4 °F (1951)
Degree Days  
Heating Degree Days 18    
Month to date heating degree days  
Cooling Degree Days 0    
Month to date cooling degree days  
Moisture  
Dew Point 34 °F    
Average Humidity 65    
Maximum Humidity 92    
Minimum Humidity 33    
Precipitation  
Precipitation 0.00 in 0.02 in 0.53 in (1972)
Month to date precipitation 0.02  
Year to date precipitation 15.78  
Sea Level Pressure  
Sea Level Pressure 30.00 in    
Wind  
Wind Speed 6 mph ()    
Max Wind Speed 12 mph    
Max Gust Speed -    
Visibility 10.0 miles    
Events      
T = Trace of Precipitation, MM = Missing Value Source: Averaged Metar Reports

Daily Weather History Graph

Daily Weather History Graph

Search for Another Location

Airport:

Trip Planner

Search our weather history database for the weather conditions in past years. The results will help you decide how hot, cold, wet, or windy it might be!

Date:

Astronomy

Nov. 01, 2012 Rise Set
Actual Time 7:25 AM MDT 5:51 PM MDT
Civil Twilight 6:57 AM MDT 6:19 PM MDT
Nautical Twilight 6:25 AM MDT 6:51 PM MDT
Astronomical Twilight 5:53 AM MDT 7:23 PM MDT
Moon 7:50 PM MDT (11/1) 10:00 AM MDT (11/1)
Length of Visible Light 11h 22m
Length of Day
10h 26m
Waning Gibbous, 92% of the Moon is Illuminated
Nov 1
Waning Gibbous
Nov 6
Last Quarter
Nov 13
New
Nov 20
First Quarter
Nov 28
Full

Hourly Weather History & Observations

Time (MDT) Temp. Windchill Dew Point Humidity Pressure Visibility Wind Dir Wind Speed Gust Speed Precip Events Conditions
12:15 AM 44.1 °F 40.8 °F 31.5 °F 61% 30.14 in 10.0 mi West 5.8 mph - N/A   Clear
12:35 AM 42.4 °F 37.5 °F 32.0 °F 67% 30.13 in 10.0 mi West 8.1 mph - N/A   Clear
12:55 AM 41.2 °F 36.6 °F 33.3 °F 73% 30.13 in 10.0 mi West 6.9 mph - N/A   Clear
1:15 AM 40.1 °F 36.1 °F 33.6 °F 78% 30.13 in 10.0 mi SW 5.8 mph - N/A   Clear
1:35 AM 36.7 °F 31.2 °F 32.9 °F 86% 30.13 in 10.0 mi West 6.9 mph - N/A   Clear
1:55 AM 35.4 °F 29.0 °F 32.5 °F 89% 30.12 in 10.0 mi West 8.1 mph - N/A   Clear
2:15 AM 37.4 °F 30.3 °F 33.1 °F 84% 30.12 in 10.0 mi West 10.4 mph - N/A   Clear
2:35 AM 37.9 °F 32.7 °F 33.4 °F 84% 30.11 in 10.0 mi West 6.9 mph - N/A   Clear
3:15 AM 37.0 °F 31.0 °F 33.4 °F 87% 30.10 in 10.0 mi West 8.1 mph - N/A   Clear
3:35 AM 36.7 °F 31.2 °F 33.1 °F 87% 30.10 in 10.0 mi West 6.9 mph - N/A   Clear
4:15 AM 36.7 °F 30.5 °F 33.3 °F 87% 30.08 in 10.0 mi West 8.1 mph - N/A   Clear
4:35 AM 34.9 °F 28.3 °F 32.4 °F 91% 30.09 in 10.0 mi West 8.1 mph - N/A   Clear
4:55 AM 34.9 °F 26.6 °F 32.9 °F 92% 30.08 in 10.0 mi West 11.5 mph - N/A   Clear
5:35 AM 35.1 °F 29.3 °F 32.9 °F 92% 30.07 in 10.0 mi West 6.9 mph - N/A   Clear
5:55 AM 36.0 °F 28.5 °F 33.1 °F 89% 30.06 in 10.0 mi West 10.4 mph - N/A   Clear
6:15 AM 36.0 °F 28.5 °F 32.9 °F 89% 30.06 in 10.0 mi West 10.4 mph - N/A   Clear
6:55 AM 37.4 °F 30.3 °F 32.9 °F 84% 30.05 in 10.0 mi West 10.4 mph - N/A   Clear
7:15 AM 38.7 °F 32.9 °F 32.4 °F 78% 30.05 in 10.0 mi West 8.1 mph - N/A   Clear
7:35 AM 39.2 °F 35.0 °F 32.2 °F 76% 30.04 in 10.0 mi SW 5.8 mph - N/A   Clear
7:55 AM 37.8 °F 33.3 °F 32.0 °F 80% 30.04 in 10.0 mi SW 5.8 mph - N/A   Clear
8:15 AM 38.8 °F 33.8 °F 33.4 °F 81% 30.05 in 10.0 mi WSW 6.9 mph - N/A   Clear
8:35 AM 40.5 °F - 34.7 °F 80% 30.05 in 10.0 mi Calm Calm - N/A   Clear
8:55 AM 41.0 °F - 34.9 °F 79% 30.04 in 10.0 mi Calm Calm - N/A   Clear
9:15 AM 42.3 °F 40.5 °F 34.9 °F 75% 30.04 in 10.0 mi South 3.5 mph - N/A   Clear
9:35 AM 46.4 °F 43.5 °F 35.2 °F 65% 30.04 in 10.0 mi SW 5.8 mph - N/A   Clear
9:55 AM 46.4 °F 43.5 °F 36.7 °F 69% 30.04 in 10.0 mi WSW 5.8 mph - N/A   Clear
10:15 AM 46.6 °F - 34.9 °F 64% 30.04 in 10.0 mi SW 4.6 mph - N/A   Clear
10:35 AM 48.7 °F - 35.4 °F 60% 30.04 in 10.0 mi WSW 8.1 mph - N/A   Clear
10:55 AM 50.2 °F - 33.4 °F 53% 30.04 in 10.0 mi WSW 8.1 mph - N/A   Clear
11:15 AM 51.8 °F - 32.2 °F 47% 30.03 in 10.0 mi WSW 4.6 mph - N/A   Clear
11:35 AM 53.1 °F - 33.6 °F 48% 30.02 in 10.0 mi SW 5.8 mph - N/A   Clear
11:55 AM 53.8 °F - 34.5 °F 48% 30.02 in 10.0 mi WSW 6.9 mph - N/A   Clear
12:15 PM 54.5 °F - 35.1 °F 48% 30.00 in 10.0 mi WSW 6.9 mph - N/A   Clear
12:35 PM 55.6 °F - 34.0 °F 44% 29.99 in 10.0 mi SSW 5.8 mph - N/A   Clear
12:55 PM 56.7 °F - 32.9 °F 41% 29.99 in 10.0 mi WSW 6.9 mph - N/A   Clear
1:15 PM 56.8 °F - 32.7 °F 40% 29.98 in 10.0 mi WSW 4.6 mph - N/A   Clear
1:35 PM 59.0 °F - 33.4 °F 38% 29.96 in 10.0 mi WSW 5.8 mph - N/A   Clear
1:55 PM 59.7 °F - 32.7 °F 36% 29.95 in 10.0 mi WSW 5.8 mph - N/A   Clear
2:15 PM 61.2 °F - 32.0 °F 33% 29.94 in 10.0 mi WSW 3.5 mph - N/A   Clear
2:35 PM 61.7 °F - 31.8 °F 33% 29.94 in 10.0 mi WSW 3.5 mph - N/A   Clear
2:55 PM 61.5 °F - 32.0 °F 33% 29.94 in 10.0 mi WSW 5.8 mph - N/A   Clear
3:15 PM 61.0 °F - 32.2 °F 34% 29.94 in 10.0 mi West 4.6 mph - N/A   Clear
3:35 PM 60.6 °F - 32.0 °F 34% 29.94 in 10.0 mi West 6.9 mph - N/A   Clear
3:55 PM 59.9 °F - 32.5 °F 36% 29.94 in 10.0 mi West 4.6 mph - N/A   Clear
4:15 PM 59.2 °F - 34.0 °F 39% 29.94 in 10.0 mi West 4.6 mph - N/A   Clear
4:35 PM 58.6 °F - 35.1 °F 41% 29.93 in 10.0 mi Calm Calm - N/A   Clear
4:55 PM 57.7 °F - 35.8 °F 44% 29.93 in 10.0 mi WNW 3.5 mph - N/A   Clear
5:15 PM 56.7 °F - 35.4 °F 45% 29.93 in 10.0 mi Calm Calm - N/A   Clear
5:35 PM 55.4 °F - 36.5 °F 49% 29.93 in 10.0 mi Calm Calm - N/A   Clear
5:55 PM 50.9 °F - 37.2 °F 59% 29.93 in 10.0 mi West 6.9 mph - N/A   Clear
6:15 PM 51.3 °F - 36.1 °F 56% 29.93 in 10.0 mi West 3.5 mph - N/A   Clear
6:35 PM 50.2 °F - 35.2 °F 57% 29.93 in 10.0 mi NW 3.5 mph - N/A   Clear
6:55 PM 48.2 °F - 33.1 °F 56% 29.93 in 10.0 mi Calm Calm - N/A   Clear
7:15 PM 53.6 °F - 30.9 °F 42% 29.93 in 10.0 mi Calm Calm - N/A   Clear
7:55 PM 49.3 °F - 32.7 °F 53% 29.92 in 10.0 mi NW 5.8 mph - N/A   Clear
8:15 PM 52.2 °F - 32.2 °F 47% 29.92 in 10.0 mi NNW 4.6 mph - N/A   Clear
8:35 PM 48.7 °F - 34.7 °F 58% 29.93 in 10.0 mi Calm Calm - N/A   Clear
8:55 PM 43.9 °F 40.5 °F 36.5 °F 75% 29.93 in 10.0 mi South 5.8 mph - N/A   Clear
9:15 PM 42.1 °F 38.4 °F 36.3 °F 80% 29.93 in 10.0 mi SW 5.8 mph - N/A   Clear
9:35 PM 42.1 °F 37.1 °F 36.7 °F 81% 29.93 in 10.0 mi WNW 8.1 mph - N/A   Clear
9:55 PM 43.3 °F 39.9 °F 37.4 °F 80% 29.93 in 10.0 mi WNW 5.8 mph - N/A   Clear
10:15 PM 43.0 °F 40.3 °F 37.0 °F 80% 29.92 in 10.0 mi West 4.6 mph - N/A   Clear
10:35 PM 42.8 °F 40.1 °F 37.4 °F 81% 29.92 in 10.0 mi SSW 4.6 mph - N/A   Clear
10:55 PM 42.3 °F 39.4 °F 37.6 °F 83% 29.92 in 10.0 mi SW 4.6 mph - N/A   Clear
11:15 PM 42.3 °F 36.3 °F 37.9 °F 85% 29.92 in 10.0 mi West 10.4 mph - N/A   Clear
11:35 PM 42.3 °F 37.3 °F 37.9 °F 85% 29.92 in 10.0 mi West 8.1 mph - N/A   Clear
11:55 PM 43.2 °F 37.4 °F 37.9 °F 82% 29.92 in 10.0 mi West 10.4 mph - N/A   Clear